[[{"header":{"parameterUnit":"m.s-1","parameterCategory":1,"la1":30.2992,"la2":30.254,"lo1":-89.0895,"lo2":-89.0443,"dy":0.0025,"dx":0.0025,"nx":19,"ny":19,"refTime":"2026-04-05T03:00:00:Z","depth":0,"parameterNumber":2,"parameterNumberName":"U-component_of_WINDS"},"data":[0,0,0,0.4439,0.444,0.4495,0.4495,0.4566,0.4566,0,0,0,0,0,0,0,0,0,0,0,0.442,0.442,0.4438,0.444,0.4495,0.4495,0.4565,0.4566,0,0,0,0,0,0,0,0,0,0,0,0.4419,0.442,0.442,0.444,0.4495,0.4495,0.4565,0.4524,0,0,0,0,0,0,0,0,0,0,0.4471,0.445,0.442,0.442,0.444,0.4495,0.4495,0.4522,0.4527,0.454,0,0.4548,0,0.4558,0.4571,0.4571,0,0,0,0.4442,0.4446,0.4463,0.442,0.4441,0.4495,0.4471,0.4525,0.453,0.4546,0.4549,0.4552,0.4559,0.4571,0.4571,0.4633,0.4633,0,0,0.4439,0.4428,0.446,0.4467,0.4455,0.4469,0.4472,0.4528,0.4532,0.4549,0.4554,0.456,0.4572,0.4572,0.4633,0.4633,0,0,0,0.4429,0.4426,0.4442,0.4464,0.4473,0.447,0.4475,0.453,0.4536,0.4554,0.4561,0.4572,0.4573,0.4632,0.4633,0.463,0,0,0,0.4427,0.442,0.4441,0.4435,0.4472,0.4502,0.4475,0.4532,0.4538,0.4561,0.4572,0.4573,0.4632,0.4633,0.463,0.4631,0,0,0,0.4417,0.4419,0.4426,0.4434,0.4457,0.4501,0.451,0.4533,0.4542,0.4571,0.4574,0.4632,0.4633,0.4629,0.463,0.4644,0,0,0,0.4403,0.4422,0.4425,0.445,0.4456,0.4498,0.451,0.4542,0.4566,0.4572,0.4632,0.4633,0.4629,0.463,0.4644,0.4654,0.4657,0,0,0.4422,0.4424,0.444,0.4444,0.4482,0.4491,0.453,0.4563,0.4577,0.4614,0.4616,0.463,0.463,0.4644,0.4678,0.468,0,0,0,0.4442,0.4453,0.4466,0.4487,0.4512,0.4535,0.4563,0.4576,0.4608,0.4593,0.4639,0.464,0.4648,0.4654,0.4656,0.4665,0.4635,0.4634,0.4634,0.4452,0.4468,0.4495,0.4518,0.454,0.4569,0.4589,0.4612,0.4622,0.4633,0.4644,0.4662,0.4668,0.467,0.4679,0.465,0.465,0.465,0.465,0.4481,0.45,0.4513,0.4544,0.4562,0.459,0.4621,0.4627,0.4657,0.4654,0.4663,0.4659,0.4671,0.4681,0.465,0.465,0.465,0.465,0.465,0.4489,0.4501,0.4516,0.455,0.4576,0.46,0.4628,0.4644,0.4659,0.4667,0.4682,0.4682,0.4685,0.4673,0.4673,0.4673,0.4673,0.4673,0.4673,0.4492,0.4509,0.453,0.4559,0.4577,0.4602,0.4634,0.4652,0.4677,0.4686,0.4686,0.4696,0.4669,0.4662,0.4675,0.4674,0.4674,0.4674,0.4674,0.4516,0.4514,0.4545,0.4562,0.46,0.4626,0.4646,0.4682,0.47,0.4714,0.4723,0.47,0.4705,0.4703,0.4698,0.4718,0.4718,0.4718,0.4718,0.4523,0.4527,0.4564,0.4591,0.462,0.4641,0.468,0.4707,0.4734,0.4747,0.4747,0.4741,0.4738,0.4744,0.4742,0.4737,0.4767,0.4767,0.4767,0.4539,0.4547,0.4575,0.46,0.4632,0.4659,0.4697,0.473,0.4761,0.477,0.4758,0.4756,0.4746,0.4742,0.475,0.4746,0.4738,0,0]},{"header":{"parameterUnit":"m.s-1","parameterCategory":1,"la1":30.2992,"la2":30.254,"lo1":-89.0895,"lo2":-89.0443,"dy":0.0025,"dx":0.0025,"nx":19,"ny":19,"refTime":"2026-04-05T03:00:00:Z","depth":0,"parameterNumber":3,"parameterNumberName":"V-component_of_WINDS"},"data":[0,0,0,-5.744,-5.7443,-5.7597,-5.7598,-5.7787,-5.7788,0,0,0,0,0,0,0,0,0,0,0,-5.7392,-5.7393,-5.744,-5.7444,-5.7597,-5.7598,-5.7786,-5.7788,0,0,0,0,0,0,0,0,0,0,0,-5.7391,-5.7392,-5.7394,-5.7444,-5.7597,-5.7598,-5.7786,-5.7672,0,0,0,0,0,0,0,0,0,0,-5.7524,-5.7477,-5.7392,-5.7394,-5.7445,-5.7597,-5.7598,-5.7667,-5.7679,-5.7714,0,-5.7746,0,-5.7771,-5.78,-5.7801,0,0,0,-5.7445,-5.7466,-5.7511,-5.7394,-5.7447,-5.7597,-5.7528,-5.7674,-5.7688,-5.7731,-5.7749,-5.7756,-5.7774,-5.7802,-5.7803,-5.8008,-5.8009,0,0,-5.7437,-5.7417,-5.7501,-5.752,-5.7498,-5.7523,-5.7533,-5.7682,-5.77,-5.775,-5.7761,-5.7777,-5.7803,-5.7804,-5.8007,-5.8008,0,0,0,-5.7411,-5.7411,-5.7452,-5.7512,-5.7541,-5.7528,-5.7539,-5.7693,-5.7709,-5.7763,-5.7779,-5.7804,-5.7806,-5.8006,-5.8007,-5.8035,0,0,0,-5.7406,-5.7396,-5.7448,-5.7437,-5.7538,-5.7619,-5.7546,-5.7698,-5.7716,-5.7778,-5.7804,-5.7808,-5.8005,-5.8007,-5.8033,-5.8051,0,0,0,-5.7382,-5.7393,-5.7415,-5.7436,-5.7502,-5.7617,-5.7641,-5.7703,-5.7726,-5.7801,-5.7809,-5.8004,-5.8006,-5.803,-5.8047,-5.8102,0,0,0,-5.735,-5.7433,-5.7415,-5.7514,-5.7501,-5.7634,-5.764,-5.774,-5.7808,-5.7805,-5.8005,-5.8007,-5.8029,-5.8044,-5.8099,-5.8146,-5.8163,0,0,-5.7444,-5.7444,-5.7504,-5.7492,-5.7625,-5.7612,-5.7748,-5.7827,-5.785,-5.7953,-5.7959,-5.8033,-5.8047,-5.8101,-5.8265,-5.8278,0,0,0,-5.7527,-5.757,-5.761,-5.7676,-5.7741,-5.7799,-5.786,-5.789,-5.798,-5.79,-5.8068,-5.8076,-5.8109,-5.8132,-5.8144,-5.8174,-5.8017,-5.8017,-5.8016,-5.7629,-5.766,-5.7762,-5.7812,-5.7876,-5.7941,-5.7996,-5.8047,-5.8053,-5.8093,-5.8124,-5.822,-5.8246,-5.8255,-5.8287,-5.815,-5.815,-5.815,-5.815,-5.7771,-5.7838,-5.7851,-5.7956,-5.7987,-5.8074,-5.8141,-5.8144,-5.8229,-5.8198,-5.8228,-5.8192,-5.8269,-5.8299,-5.8153,-5.8152,-5.8152,-5.8152,-5.8152,-5.7842,-5.788,-5.7918,-5.8021,-5.8096,-5.8142,-5.8226,-5.8249,-5.8271,-5.8302,-5.8339,-5.8338,-5.8342,-5.8318,-5.8318,-5.8318,-5.8319,-5.8319,-5.8319,-5.7901,-5.7944,-5.8013,-5.8093,-5.8142,-5.8208,-5.8277,-5.8324,-5.8383,-5.8393,-5.8394,-5.8399,-5.8272,-5.824,-5.8325,-5.8324,-5.8323,-5.8322,-5.8322,-5.8034,-5.801,-5.8116,-5.8165,-5.8264,-5.8339,-5.837,-5.8466,-5.8508,-5.8549,-5.8549,-5.8451,-5.8451,-5.8442,-5.8416,-5.8541,-5.8541,-5.8541,-5.8541,-5.8095,-5.81,-5.8217,-5.8295,-5.8373,-5.8414,-5.8534,-5.859,-5.8642,-5.8671,-5.8656,-5.8624,-5.8613,-5.862,-5.8607,-5.8583,-5.8748,-5.8748,-5.8748,-5.818,-5.8194,-5.8293,-5.8348,-5.8429,-5.8497,-5.8612,-5.8699,-5.8753,-5.8757,-5.8694,-5.8685,-5.8633,-5.8614,-5.8616,-5.8595,-5.8552,0,0]}]]